Location: Bonn
(50.7330°N, 7.1000°E)
Time: 13:10:01
(UTC+02:00)

Daily predictions for brighter satellites

Satellite Brightness Start Highest point End
(mag) Time Altitude Azimuth Time Altitude Azimuth Time Altitude Azimuth
Meteor 2-3 Rocket 4.1 22:03:17 10° SSW 22:08:54 71° WNW 22:14:31 10° N
CZ-4B R/B 4.3 22:04:45 10° NNE 22:09:13 30° E 22:13:31 10° SSE
Meteor 1-27 Rocket 3.8 22:04:36 10° N 22:10:14 67° ENE 22:15:44 10° SSE
CENTAUR R/B 3.7 22:04:37 10° NW 22:12:03 52° WSW 22:19:58 10° SSE
Cosmos 676 Rocket 4.1 22:08:54 10° NNW 22:14:07 70° ENE 22:19:19 10° SSE
Cosmos 1862 4.2 22:11:57 10° SSE 22:15:37 34° E 22:19:19 10° NNE
Cosmos 2082 Rocket 3.5 22:11:13 10° NNW 22:16:18 31° NE 22:21:18 10° ESE
Cosmos 1844 Rocket 3.2 22:11:20 10° S 22:16:34 40° ESE 22:21:48 10° NE
Okean 2 Rocket 4.4 22:14:04 10° SE 22:17:36 24° E 22:21:09 10° NE
Sich 1 Rocket 3.8 22:15:56 10° S 22:20:26 59° E 22:24:59 10° NNE
Cosmos 2056 Rocket 3.5 22:15:38 10° S 22:20:43 64° ESE 22:25:49 10° NNE
Cosmos 1954 Rocket 4.2 22:16:51 10° NNW 22:22:02 64° ENE 22:27:13 10° SE
Cosmos 1371 Rocket 4.1 22:17:21 10° SSW 22:22:41 86° ESE 22:28:00 10° NNE
Cosmos 1174 3.3 22:19:24 10° NW 22:23:00 85° NE 22:25:59 11° SE
PSLV R/B 3.3 22:20:54 10° S 22:23:50 69° WSW 22:26:49 10° NNW
NOSS 2-2 (D) 3.9 22:20:12 10° SSW 22:24:15 46° ESE 22:29:05 10° NE
Cosmos 1674 Rocket 4.1 22:22:48 10° NNW 22:27:14 61° W 22:31:37 10° S
Cosmos 2154 Rocket 4.1 22:22:12 10° S 22:28:19 63° E 22:34:27 10° NNE
Cosmos 2263 Rocket 3.3 22:25:47 10° SW 22:31:16 49° NW 22:36:46 10° NNE
CZ-4C R/B 4.0 22:31:08 11° SE 22:34:35 41° ENE 22:38:25 10° N
Cosmos 2184 Rocket 4.4 22:29:32 10° SSW 22:35:39 67° WNW 22:41:51 10° N
NOSS 2-2 (C) 3.7 22:34:42 10° SSW 22:38:52 61° SE 22:43:55 10° NE
Cosmos 1825 2.5 22:35:30 10° S 22:39:10 49° E 22:42:54 10° NNE
Cosmos 1461 3.5 22:35:21 10° SW 22:39:58 69° NW 22:44:28 10° NE
CZ-4 R/B 4.3 22:35:36 10° NNE 22:40:04 41° E 22:44:29 10° S
Elektron 3 3.9 22:37:15 10° NW 22:40:06 67° SW 22:43:00 14° SE
Cosmos 1782 4.0 22:36:23 10° NNW 22:40:12 42° W 22:44:01 10° SSW
Cosmos 909 Rocket 4.4 22:34:27 10° SSW 22:41:09 82° SE 22:49:30 10° NE
Cosmos 1782 Rocket 3.9 22:39:16 10° SSE 22:43:33 49° E 22:47:53 10° NNE
NOAA 11 4.3 22:41:52 10° SSE 22:47:22 87° WSW 22:52:55 10° NNW
SL-8 R/B 4.2 22:46:43 10° SW 22:51:07 36° SSE 22:55:32 10° E
Cosmos 1184 Rocket 3.1 22:50:30 12° S 22:53:24 48° E 22:56:40 10° NNE
COSMOS 2487 2.5 22:50:58 10° NNW 22:54:37 85° WSW 22:57:28 16° SSE
Cosmos 1975 Rocket 3.0 22:50:25 10° N 22:54:47 90° ENE 22:58:44 12° S
IGS 5A 4.0 22:52:03 15° SE 22:55:15 46° ENE 22:59:16 10° N
Cosmos 489 Rocket 4.5 22:49:17 10° NNW 22:55:34 89° ENE 23:01:03 14° SSE
SL-08 RB Rocket 3.8 22:52:23 11° SSE 22:56:49 81° WSW 23:01:29 10° NNW
NOSS 2-2 (E) 3.8 22:53:49 10° SW 22:58:10 89° SE 23:03:34 10° NE
H-2A R/B 2.2 22:54:08 14° SSE 22:58:53 69° ENE 23:04:12 10° N
YAOGAN 6 4.0 22:57:27 10° SSW 23:00:41 34° W 23:03:55 10° NNW
Cosmos 1023 Rocket 4.4 22:56:26 10° NNW 23:01:34 89° ENE 23:05:44 16° SSE
Cosmos 1408 2.5 22:57:57 10° S 23:01:38 88° ESE 23:05:20 10° N
CARTOSAT-1 3.7 22:59:12 16° SSE 23:02:34 63° ENE 23:06:51 10° N
Okean 3 3.9 22:59:33 10° NNW 23:03:50 63° W 23:07:55 11° S
Cosmos 1606 4.1 23:00:50 10° NNW 23:04:29 36° W 23:08:06 10° SSW
Cosmos 1536 Rocket 4.2 23:03:06 10° N 23:07:25 44° ENE 23:10:24 18° SE
Cosmos 1908 Rocket 4.1 23:04:40 10° SSW 23:09:01 61° WNW 23:13:26 10° N
USA 245 4.4 23:06:29 10° SSW 23:09:19 34° W 23:12:49 10° NNW
Cosmos 1420 Rocket 4.4 23:05:29 12° S 23:09:59 42° ESE 23:14:54 10° NE
SPOT 1/Viking Rocket 4.4 23:09:01 10° S 23:13:59 46° W 23:19:02 10° NNW
Meteor 1-14 Rocket 4.5 23:09:58 14° SSE 23:14:46 53° E 23:20:13 10° NNE
Cosmos 1242 Rocket 2.8 23:14:22 10° NNW 23:17:58 64° W 23:20:37 17° S
Cosmos 1238 Rocket 4.0 23:18:37 10° NNW 23:21:13 27° W 23:24:01 10° SSW
Cosmos 2151 Rocket 4.0 23:19:31 20° SSE 23:22:24 47° E 23:26:47 10° NNE
Cosmos 2218 Rocket 4.1 23:18:23 13° S 23:24:01 66° E 23:30:23 10° NNE
Cosmos 1452 Rocket 3.5 23:18:48 10° SSW 23:24:05 87° WNW 23:29:25 10° NNE
USA 234 3.4 23:18:10 10° ENE 23:24:29 48° SE 23:30:44 10° SSW
Landsat 7 4.3 23:25:02 15° S 23:28:54 58° W 23:33:38 10° NNW
ASTEX 1 3.9 23:26:48 10° NNE 23:31:31 44° E 23:34:19 22° SSE
Cosmos 614 Rocket 4.0 23:28:29 10° NNW 23:33:37 75° WSW 23:36:58 22° SSE
Cosmos 1140 Rocket 4.0 23:28:50 10° NNW 23:33:49 52° WSW 23:37:32 17° S
DMSP B5D2-2 4.1 23:31:10 10° NNE 23:36:23 69° ESE 23:40:25 17° S
ATLAS 5 CENTAUR R/B 4.5 23:33:06 10° WNW 23:36:47 17° WSW 23:40:34 10° SSW
Cosmos 1727 Rocket 4.0 23:30:34 10° N 23:36:47 84° E 23:41:15 20° SSE
ARGOS 4.4 23:34:25 10° SSW 23:39:15 34° W 23:44:09 10° NNW
Spot 4 3.9 23:36:56 21° S 23:40:12 80° WSW 23:45:05 10° NNW
ALOS 2 4.4 23:37:56 13° ESE 23:40:34 22° ENE 23:43:56 10° N
Terra 2.2 23:41:19 19° S 23:44:40 58° W 23:49:23 10° NNW
Okean 1-7 Rocket 4.2 23:41:21 10° N 23:45:44 45° ENE 23:47:58 25° SE
Cosmos 2084 3.2 23:42:56 16° SSW 23:45:51 54° SE 23:49:37 10° NE
Cosmos 2278 Rocket 2.2 23:40:17 10° SSW 23:45:59 89° ESE 23:51:43 10° NNE
Timation 2 Rocket 4.3 23:40:35 10° NW 23:46:25 52° WSW 23:50:24 20° S
Gbstr 26 Del rocket 3.1 23:41:22 10° WNW 23:46:30 86° NNE 23:50:06 14° E
SAR-Lupe-2 3.7 23:45:17 28° S 23:47:03 68° WSW 23:50:38 10° NNW
Cosmos 1844 4.2 23:42:37 10° SW 23:48:22 65° NW 23:54:10 10° NNE
Cosmos 1833 Rocket 2.7 23:43:08 10° NNW 23:48:48 89° NE 23:52:15 25° SSE
Cosmos 1959 Rocket 4.5 23:45:05 13° S 23:50:33 83° W 23:56:42 10° N
Okean 2 Rocket 4.2 23:51:16 10° SW 23:55:29 41° WNW 23:59:42 10° N
